EW4479 Weather Reports


Display with metric or nautical units.
time (UTC)temp
F
wind
direction
speed
MPH
gust
MPH
rain 1hr
in
rain 24hr
in
rain mn
in
humidity
%
barometer
mb
20260902154301 75 285 2.0 5.0 0.00 0.00 0.00 50 1021.3
20260902153802 75 291 1.0 7.0 0.00 0.00 0.00 51 1021.3
20260902152802 76 301 1.0 5.0 0.00 0.00 0.00 52 1021.4
20260902152300 75 300 1.0 5.0 0.00 0.00 0.00 51 1021.4
20260902151802 76 319 1.0 4.0 0.00 0.00 0.00 52 1021.4
20260902151301 76 305 2.0 4.0 0.00 0.00 0.00 52 1021.5
20260902150803 76 251 2.0 5.0 0.00 0.00 0.00 51 1021.6
20260902145802 76 298 2.0 5.0 0.00 0.00 0.00 51 1021.7
20260902145300 76 317 2.0 5.0 0.00 0.00 0.00 52 1021.7
20260902144802 76 11 2.0 5.0 0.00 0.00 0.00 50 1021.6
20260902144303 76 5 1.0 9.0 0.00 0.00 0.00 50 1021.7
20260902143302 76 303 2.0 4.0 0.00 0.00 0.00 50 1021.7
20260902142803 76 296 1.0 7.0 0.00 0.00 0.00 51 1021.7
20260902142315 77 319 1.0 8.0 0.00 0.00 0.00 49 1021.7
20260902141804 77 15 3.0 8.0 0.00 0.00 0.00 49 1021.7
20260902141302 78 280 3.0 8.0 0.00 0.00 0.00 49 1021.7
20260902140803 78 286 2.0 8.0 0.00 0.00 0.00 49 1021.7
20260902140302 78 330 3.0 9.0 0.00 0.00 0.00 48 1021.8
20260902135802 78 281 3.0 9.0 0.00 0.00 0.00 49 1021.9
20260902135301 78 290 1.0 5.0 0.00 0.00 0.00 49 1021.8
20260902134802 77 348 2.0 8.0 0.00 0.00 0.00 51 1022.0
20260902133801 75 303 2.0 8.0 0.00 0.00 0.00 50 1022.0
20260902133301 76 282 4.0 9.0 0.00 0.00 0.00 50 1022.0
20260902132801 77 300 4.0 9.0 0.00 0.00 0.00 48 1022.0
20260902131801 77 325 3.0 8.0 0.00 0.00 0.00 49 1022.1
20260902131315 77 299 1.0 8.0 0.00 0.00 0.00 50 1022.1
20260902130802 77 300 2.0 8.0 0.00 0.00 0.00 51 1022.1
20260902130301 76 355 3.0 8.0 0.00 0.00 0.00 51 1022.1
20260902125801 77 276 4.0 8.0 0.00 0.00 0.00 50 1022.2
20260902125300 77 342 4.0 8.0 0.00 0.00 0.00 50 1022.2
20260902124303 77 289 2.0 10.0 0.00 0.00 0.00 51 1022.3
20260902123801 76 271 2.0 10.0 0.00 0.00 0.00 51 1022.3
20260902122801 75 333 3.0 8.0 0.00 0.00 0.00 52 1022.6
20260902122305 76 345 3.0 7.0 0.00 0.00 0.00 52 1022.5
20260902121800 76 237 2.0 6.0 0.00 0.00 0.00 53 1022.6
20260902121302 75 259 1.0 5.0 0.00 0.00 0.00 52 1022.6
20260902120802 76 242 1.0 5.0 0.00 0.00 0.00 52 1022.6
20260902120301 75 309 2.0 5.0 0.00 0.00 0.00 53 1022.6
20260902115800 75 295 2.0 5.0 0.00 0.00 0.00 52 1022.6
20260902115300 74 308 2.0 6.0 0.00 0.00 0.00 52 1022.7
20260902114301 75 231 2.0 5.0 0.00 0.00 0.00 56 1022.6
20260902113300 74 219 1.0 4.0 0.00 0.00 0.00 57 1022.7
20260902112801 74 216 2.0 7.0 0.00 0.00 0.00 62 1022.8
20260902112305 74 336 3.0 7.0 0.00 0.00 0.00 59 1022.9
20260902111801 74 235 2.0 6.0 0.00 0.00 0.00 60 1022.9
20260902110804 72 225 0.0 4.0 0.00 0.00 0.00 64 1022.9
20260902105803 73 292 2.0 4.0 0.00 0.00 0.00 62 1023.0
20260902105306 73 224 1.0 5.0 0.00 0.00 0.00 60 1023.0
20260902104802 72 204 1.0 5.0 0.00 0.00 0.00 67 1023.0
20260902104303 72 263 1.0 5.0 0.00 0.00 0.00 64 1023.1
20260902103803 72 248 1.0 5.0 0.00 0.00 0.00 63 1023.1
20260902103302 72 236 1.0 4.0 0.00 0.00 0.00 63 1023.2
20260902102803 71 233 1.0 3.0 0.00 0.00 0.00 63 1023.1
20260902101805 71 235 0.0 4.0 0.00 0.00 0.00 65 1023.2
20260902101302 70 221 1.0 4.0 0.00 0.00 0.00 65 1023.3
20260902100806 70 220 0.0 3.0 0.00 0.00 0.00 66 1023.3
20260902095250 70 221 1.0 3.0 0.00 0.00 0.00 66 1023.3
20260902094745 70 223 1.0 3.0 0.00 0.00 0.00 69 1023.2
20260902094244 69 211 2.0 3.0 0.00 0.00 0.00 68 1023.3
20260902093743 69 223 1.0 4.0 0.00 0.00 0.00 70 1023.2
20260902093241 69 103 1.0 6.0 0.00 0.00 0.00 66 1023.3
20260902092738 70 153 1.0 6.0 0.00 0.00 0.00 66 1023.4
20260902092238 70 179 1.0 4.0 0.00 0.00 0.00 71 1023.5
20260902091740 70 136 1.0 4.0 0.00 0.00 0.00 71 1023.3
20260902090731 69 221 1.0 4.0 0.00 0.00 0.00 71 1023.4
20260902090231 68 121 2.0 5.0 0.00 0.00 0.00 69 1023.5
20260902085731 68 204 2.0 6.0 0.00 0.00 0.00 69 1023.5
20260902085230 68 188 1.0 6.0 0.00 0.00 0.00 70 1023.5
20260902084728 68 195 4.0 5.0 0.00 0.00 0.00 70 1023.5
20260902084226 68 158 1.0 5.0 0.00 0.00 0.00 71 1023.4
20260902083725 68 200 3.0 5.0 0.00 0.00 0.00 70 1023.3
20260902083227 68 218 2.0 4.0 0.00 0.00 0.00 71 1023.3
20260902082222 67 105 1.0 3.0 0.00 0.00 0.00 78 1023.2
20260902081221 66 98 1.0 2.0 0.00 0.00 0.00 80 1023.3
20260902080217 65 132 0.0 2.0 0.00 0.00 0.00 83 1023.2
20260902075716 65 128 0.0 3.0 0.00 0.00 0.00 81 1023.3
20260902075218 64 88 1.0 3.0 0.00 0.00 0.00 84 1023.3
20260902074215 62 69 0.0 1.0 0.00 0.00 0.00 87 1023.3
20260902073712 62 0 0.0 0.0 0.00 0.00 0.00 87 1023.2
20260902073209 62 0 0.0 0.0 0.00 0.00 0.00 87 1023.3
20260902072708 62 0 0.0 1.0 0.00 0.00 0.00 85 1023.3
20260902072504 62 69 0.0 1.0 0.00 0.00 0.00 85 1023.2
20260902072001 62 69 0.0 1.0 0.00 0.00 0.00 86 1023.3
20260902071501 62 69 0.0 1.0 0.00 0.00 0.00 86 1023.2
20260902071001 61 69 0.0 2.0 0.00 0.00 0.00 86 1023.2
20260902070500 61 69 0.0 3.0 0.00 0.00 0.00 85 1023.1
20260902070001 61 69 2.0 3.0 0.00 0.00 0.00 85 1023.2
20260902065501 61 51 0.0 2.0 0.00 0.00 0.00 88 1023.2
20260902065002 60 51 0.0 2.0 0.00 0.00 0.00 89 1023.2
20260902064507 60 49 0.0 0.0 0.00 0.00 0.00 90 1023.2
20260902064002 59 49 0.0 0.0 0.00 0.00 0.00 90 1023.2
20260902063504 58 49 0.0 0.0 0.00 0.00 0.00 91 1023.2
20260902063004 57 49 0.0 0.0 0.00 0.00 0.00 91 1023.2
20260902062502 57 49 0.0 0.0 0.00 0.00 0.00 91 1023.3
20260902061508 55 49 0.0 0.0 0.00 0.00 0.00 93 1023.4
20260902060503 53 49 0.0 0.0 0.00 0.00 0.00 94 1023.4
20260902060004 52 49 0.0 0.0 0.00 0.00 0.00 95 1023.4
20260902055504 52 49 0.0 0.0 0.00 0.00 0.00 95 1023.3
20260902055003 51 49 0.0 0.0 0.00 0.00 0.00 95 1023.3
20260902054002 50 49 0.0 0.0 0.00 0.00 0.00 95 1023.2
20260902053500 50 49 0.0 0.0 0.00 0.00 0.00 95 1023.1
20260902052501 49 49 0.0 0.0 0.00 0.00 0.00 96 1022.9
20260902051501 49 49 0.0 0.0 0.00 0.00 0.00 96 1022.9
20260902050501 48 49 0.0 0.0 0.00 0.00 0.00 96 1023.0
20260902050000 48 49 0.0 0.0 0.00 0.00 0.00 96 1022.9
20260902045500 48 49 0.0 0.0 0.00 0.00 0.00 96 1022.9
20260902045003 48 49 0.0 0.0 0.00 0.00 0.00 96 1022.8
20260902044503 49 49 0.0 0.0 0.00 0.00 0.00 96 1022.9
20260902044002 48 49 0.0 0.0 0.00 0.00 0.00 96 1022.8
20260902043502 49 49 0.0 0.0 0.00 0.00 0.00 96 1022.9
20260902043007 48 49 0.0 0.0 0.00 0.00 0.00 96 1022.9
20260902042501 48 49 0.0 0.0 0.00 0.00 0.00 96 1022.9
20260902041508 48 49 0.0 0.0 0.00 0.00 0.00 95 1022.9
20260902041001 49 49 0.0 0.0 0.00 0.00 0.00 95 1022.9
20260902040001 49 49 0.0 0.0 0.00 0.00 0.00 96 1022.8
20260902034459 49 49 0.0 0.0 0.00 0.00 0.00 96 1022.9
20260902033959 49 49 0.0 0.0 0.00 0.00 0.00 96 1023.0
20260902033453 49 49 0.0 0.0 0.00 0.00 0.00 96 1023.0
20260902032950 49 49 0.0 0.0 0.00 0.00 0.00 96 1022.9
20260902032444 49 49 0.0 0.0 0.00 0.00 0.00 96 1022.9
20260902031938 49 49 0.0 0.0 0.00 0.00 0.00 95 1023.0
20260902031438 49 49 0.0 0.0 0.00 0.00 0.00 95 1022.9
20260902030937 49 49 0.0 0.0 0.00 0.00 0.00 95 1023.0
20260902030435 49 49 0.0 0.0 0.00 0.00 0.00 95 1023.0
20260902025935 49 49 0.0 0.0 0.00 0.00 0.00 95 1023.1
20260902024929 49 49 0.0 0.0 0.00 0.00 0.00 94 1023.1
20260902024429 49 49 0.0 0.0 0.00 0.00 0.00 94 1023.2
20260902023428 51 49 0.0 0.0 0.00 0.00 0.00 94 1023.2
20260902022929 51 49 0.0 0.0 0.00 0.00 0.00 94 1023.1
20260902021424 51 49 0.0 1.0 0.00 0.00 0.00 95 1023.2
20260902020920 51 49 0.0 1.0 0.00 0.00 0.00 95 1023.2
20260902015915 51 18 0.0 0.0 0.00 0.00 0.00 94 1023.2
20260902015402 51 18 0.0 0.0 0.00 0.00 0.00 94 1023.3
20260902014903 51 18 0.0 0.0 0.00 0.00 0.00 94 1023.4
20260902014403 51 18 0.0 0.0 0.00 0.00 0.00 94 1023.4
20260902013902 51 18 0.0 0.0 0.00 0.00 0.00 93 1023.4
20260902013400 51 18 0.0 0.0 0.00 0.00 0.00 93 1023.3
20260902012901 52 18 0.0 0.0 0.00 0.00 0.00 93 1023.4
20260902012401 52 18 0.0 0.0 0.00 0.00 0.00 93 1023.4
20260902011901 52 18 0.0 0.0 0.00 0.00 0.00 94 1023.3
20260902011402 52 18 0.0 0.0 0.00 0.00 0.00 93 1023.5
20260902010901 52 18 0.0 0.0 0.00 0.00 0.00 93 1023.4
20260902010401 52 18 0.0 0.0 0.00 0.00 0.00 93 1023.4
20260902005900 52 18 0.0 0.0 0.00 0.00 0.00 93 1023.4
20260902005401 52 18 0.0 0.0 0.00 0.00 0.00 94 1023.5
20260902004903 52 18 0.0 0.0 0.00 0.00 0.00 94 1023.5
20260902004404 52 18 0.0 0.0 0.00 0.00 0.00 94 1023.5
20260902003859 52 18 0.0 0.0 0.00 0.00 0.00 94 1023.5
20260902002852 52 18 0.0 0.0 0.00 0.00 0.00 93 1023.6
20260902002345 52 18 0.0 0.0 0.00 0.00 0.00 93 1023.7
20260902001843 53 18 0.0 0.0 0.00 0.00 0.00 93 1023.7
20260902001337 53 18 0.0 0.0 0.00 0.00 0.00 94 1023.7
20260902000837 53 18 0.0 0.0 0.00 0.00 0.00 93 1023.5
20260902000337 53 18 0.0 0.0 0.00 0.00 0.00 93 1023.6
20260901235831 53 18 0.0 0.0 0.00 0.00 0.00 93 1023.7
20260901235331 53 18 0.0 0.0 0.00 0.00 0.00 93 1023.6
20260901234842 53 18 0.0 0.0 0.00 0.00 0.00 93 1023.6
20260901234330 54 18 0.0 0.0 0.00 0.00 0.00 93 1023.6
20260901233832 54 18 0.0 0.0 0.00 0.00 0.00 93 1023.5
20260901232828 54 18 0.0 0.0 0.00 0.00 0.00 93 1023.6
20260901232327 54 18 0.0 0.0 0.00 0.00 0.00 92 1023.6
20260901231825 54 18 0.0 0.0 0.00 0.00 0.00 92 1023.5
20260901231324 55 18 0.0 0.0 0.00 0.00 0.00 91 1023.7
20260901230823 55 18 0.0 0.0 0.00 0.00 0.00 91 1023.7
20260901225311 55 18 0.0 0.0 0.00 0.00 0.00 91 1023.8
20260901224811 55 18 0.0 0.0 0.00 0.00 0.00 91 1023.8
20260901223810 55 18 0.0 0.0 0.00 0.00 0.00 91 1023.8
20260901223311 55 18 0.0 0.0 0.00 0.00 0.00 91 1023.8
20260901222306 56 18 0.0 0.0 0.00 0.00 0.00 91 1023.8
20260901221802 56 18 0.0 0.0 0.00 0.00 0.00 90 1023.8
20260901221303 56 18 0.0 0.0 0.00 0.00 0.00 90 1023.8
20260901220305 57 18 0.0 0.0 0.00 0.00 0.00 90 1023.8
20260901215254 57 18 0.0 0.0 0.00 0.00 0.00 89 1023.9
20260901214751 57 18 0.0 0.0 0.00 0.00 0.00 89 1023.9
20260901214247 57 18 0.0 0.0 0.00 0.00 0.00 89 1023.9
20260901213747 57 18 0.0 0.0 0.00 0.00 0.00 89 1023.8
20260901213244 57 18 0.0 0.0 0.00 0.00 0.00 89 1023.8
20260901212244 58 18 0.0 0.0 0.00 0.00 0.00 89 1023.8
20260901211745 58 18 0.0 0.0 0.00 0.00 0.00 89 1023.7
20260901210739 58 18 0.0 0.0 0.00 0.00 0.00 88 1023.7
20260901210238 58 18 0.0 0.0 0.00 0.00 0.00 88 1023.8
20260901205734 58 18 0.0 0.0 0.00 0.00 0.00 88 1023.8
20260901205229 58 18 0.0 0.0 0.00 0.00 0.00 88 1023.8
20260901203729 59 18 0.0 0.0 0.00 0.00 0.00 89 1023.7
20260901203227 59 18 0.0 0.0 0.00 0.00 0.00 89 1023.7
20260901202728 59 18 0.0 0.0 0.00 0.00 0.00 89 1023.7
20260901201724 59 18 0.0 0.0 0.00 0.00 0.00 88 1023.6
20260901201224 59 18 0.0 0.0 0.00 0.00 0.00 88 1023.7
20260901200716 59 18 0.0 0.0 0.00 0.00 0.00 88 1023.6
20260901200217 59 18 0.0 0.0 0.00 0.00 0.00 88 1023.6
20260901195718 60 18 0.0 0.0 0.00 0.00 0.00 88 1023.6
20260901195216 60 18 0.0 0.0 0.00 0.00 0.00 88 1023.5
20260901194714 60 18 0.0 0.0 0.00 0.00 0.00 88 1023.5
20260901194218 60 18 0.0 0.0 0.00 0.00 0.00 88 1023.4
20260901193712 60 18 0.0 0.0 0.00 0.00 0.00 87 1023.5
20260901192710 60 18 0.0 0.0 0.00 0.00 0.00 87 1023.4
20260901192201 60 18 0.0 0.0 0.00 0.00 0.00 87 1023.3
20260901191701 60 18 0.0 0.0 0.00 0.00 0.00 86 1023.4
20260901191201 61 18 0.0 0.0 0.00 0.00 0.00 86 1023.3
20260901190200 61 18 0.0 0.0 0.00 0.00 0.00 85 1023.2
20260901185700 61 18 0.0 0.0 0.00 0.00 0.00 85 1023.1
20260901185201 61 18 0.0 0.0 0.00 0.00 0.00 85 1023.1
20260901184202 62 18 0.0 0.0 0.00 0.00 0.00 84 1022.9
20260901183706 62 18 0.0 0.0 0.00 0.00 0.00 84 1022.8
20260901183204 62 18 0.0 0.0 0.00 0.00 0.00 83 1022.9
20260901181703 63 18 0.0 0.0 0.00 0.00 0.00 83 1022.6
20260901181201 64 18 0.0 0.0 0.00 0.00 0.00 83 1022.7
20260901180702 64 18 0.0 0.0 0.00 0.00 0.00 82 1022.6
20260901180201 64 18 0.0 0.0 0.00 0.00 0.00 81 1022.7
20260901175659 65 18 0.0 0.0 0.00 0.00 0.00 80 1022.6
20260901174151 66 18 0.0 0.0 0.00 0.00 0.00 78 1022.5
20260901173146 66 18 0.0 0.0 0.00 0.00 0.00 75 1022.5
20260901172144 67 18 0.0 0.0 0.00 0.00 0.00 75 1022.5
20260901171136 67 18 0.0 0.0 0.00 0.00 0.00 74 1022.5
20260901170635 67 18 0.0 0.0 0.00 0.00 0.00 72 1022.5
20260901170133 68 18 0.0 0.0 0.00 0.00 0.00 72 1022.3
20260901165630 68 18 0.0 0.0 0.00 0.00 0.00 73 1022.6
20260901165129 68 18 0.0 0.0 0.00 0.00 0.00 76 1022.6
20260901164629 68 18 0.0 0.0 0.00 0.00 0.00 70 1022.6
20260901164129 68 18 0.0 0.0 0.00 0.00 0.00 70 1022.6
20260901163128 68 18 0.0 1.0 0.00 0.00 0.00 70 1022.5
20260901162122 68 49 0.0 1.0 0.00 0.00 0.00 67 1022.6
20260901161622 68 49 0.0 0.0 0.00 0.00 0.00 68 1022.6
20260901160622 69 49 1.0 4.0 0.00 0.00 0.00 65 1022.5
20260901160122 69 36 0.0 4.0 0.00 0.00 0.00 66 1022.5
20260901155622 69 284 0.0 2.0 0.00 0.00 0.00 66 1022.5